Change the Weather History Date:

Saturday, January 12, 2013

  Actual Average Record
Temperature  
Mean Temperature 42 °F 13 °F  
Max Temperature 49 °F 25 °F 49 °F (1980)
Min Temperature 35 °F 2 °F -29 °F (1982)
Degree Days  
Heating Degree Days 23 52  
Month to date heating degree days 577 615  
Since 1 July heating degree days 3951 4314  
Cooling Degree Days 0 0  
Month to date cooling degree days 0  
Year to date cooling degree days 0  
Moisture  
Dew Point 37 °F    
Average Humidity 88    
Maximum Humidity 100    
Minimum Humidity 76    
Precipitation  
Precipitation T in 0.06 in 0.76 in (1980)
Month to date precipitation 0.20 0.85  
Year to date precipitation 0.20 0.85  
Sea Level Pressure  
Sea Level Pressure 30.03 in    
Wind  
Wind Speed 5 mph (WSW)    
Max Wind Speed 20 mph    
Max Gust Speed 25 mph    
Visibility 7 miles    
Events Fog , Snow    
T = Trace of Precipitation, MM = Missing Value Source: NWS Daily Summary

Daily Weather History Graph

Daily Weather History Graph

Search for Another Location

Airport or City:

Trip Planner

Search our weather history database for the weather conditions in past years. The results will help you decide how hot, cold, wet, or windy it might be!

Date:

Astronomy

Jan. 12, 2013 Rise Set
Actual Time 7:30 AM EST 4:40 PM EST
Civil Twilight 6:58 AM EST 5:12 PM EST
Nautical Twilight 6:22 AM EST 5:48 PM EST
Astronomical Twilight 5:47 AM EST 6:23 PM EST
Moon 7:44 AM EST (1/12) 6:10 PM EST (1/12)
Length of Visible Light 10h 14m
Length of Day
9h 09m
New Moon, 1% of the Moon is Illuminated
Jan 12
New Moon
Jan 18
First Quarter
Jan 26
Full
Feb 3
Last Quarter
Feb 10
New

Hourly Weather History & Observations

Time (EST) Temp. Windchill Dew Point Humidity Pressure Visibility Wind Dir Wind Speed Gust Speed Precip Events Conditions
12:19 AM 35.6 °F 30.7 °F 33.8 °F 93% 29.97 in 4.0 mi WSW 5.8 mph - 0.00 in Snow Light Snow
12:51 AM 36.0 °F 29.6 °F 34.0 °F 93% 30.03 in 10.0 mi WSW 8.1 mph - 0.00 in   Overcast
1:51 AM 37.0 °F 31.0 °F 35.1 °F 93% 30.03 in 10.0 mi WSW 8.1 mph - N/A   Overcast
2:15 AM 35.6 °F 31.7 °F 35.6 °F 100% 29.98 in 10.0 mi West 4.6 mph - N/A   Overcast
2:51 AM 36.0 °F - 35.1 °F 97% 30.02 in 10.0 mi Calm Calm - N/A   Overcast
4:51 AM 36.0 °F 31.1 °F 35.1 °F 97% 30.06 in 9.0 mi West 5.8 mph - N/A   Overcast
5:51 AM 36.0 °F 32.1 °F 35.1 °F 97% 30.05 in 9.0 mi West 4.6 mph - N/A   Overcast
6:51 AM 35.1 °F - 35.1 °F 100% 30.07 in 7.0 mi Calm Calm - N/A   Overcast
8:51 AM 36.0 °F - 36.0 °F 100% 30.07 in 8.0 mi Calm Calm - N/A   Overcast
9:51 AM 39.0 °F - 37.0 °F 93% 30.06 in 9.0 mi Calm Calm - N/A   Overcast
10:41 AM 41.0 °F - 39.2 °F 93% 30.00 in 9.0 mi Calm Calm - N/A   Scattered Clouds
10:51 AM 41.0 °F - 39.0 °F 93% 30.03 in 9.0 mi Calm Calm - N/A   Clear
11:51 AM 45.0 °F 43.5 °F 41.0 °F 86% 30.01 in 10.0 mi SW 3.5 mph - N/A   Clear
12:51 PM 48.0 °F - 41.0 °F 77% 30.00 in 10.0 mi WSW 8.1 mph - N/A   Clear
2:51 PM 46.9 °F - 39.9 °F 77% 30.00 in 10.0 mi WSW 8.1 mph - N/A   Clear
3:51 PM 46.0 °F 41.9 °F 39.0 °F 76% 30.00 in 10.0 mi West 8.1 mph - N/A   Clear
4:51 PM 44.1 °F 41.5 °F 39.0 °F 82% 30.01 in 10.0 mi West 4.6 mph - N/A   Clear
5:51 PM 43.0 °F 39.5 °F 39.9 °F 89% 30.01 in 10.0 mi WSW 5.8 mph - N/A   Clear
6:51 PM 42.1 °F 36.6 °F 39.9 °F 92% 30.04 in 10.0 mi WSW 9.2 mph - N/A   Clear
7:51 PM 41.0 °F 35.2 °F 39.0 °F 93% 30.04 in 10.0 mi SW 9.2 mph - N/A   Clear
8:51 PM 39.0 °F 36.8 °F 37.9 °F 96% 30.04 in 6.0 mi WSW 3.5 mph - N/A   Clear
9:45 PM 35.6 °F 31.7 °F 35.6 °F 100% 30.02 in 1.5 mi SSW 4.6 mph - N/A   Clear
9:51 PM 35.1 °F 32.2 °F 35.1 °F 100% 30.06 in 0.5 mi SSW 3.5 mph - N/A Fog Fog
10:30 PM 37.4 °F 34.9 °F 35.6 °F 93% 30.02 in 0.5 mi SW 3.5 mph - N/A Fog Fog
10:41 PM 37.4 °F 32.8 °F 35.6 °F 93% 30.01 in 0.5 mi SW 5.8 mph - N/A Fog Fog
10:51 PM 37.9 °F 33.5 °F 37.0 °F 97% 30.06 in 3.0 mi WSW 5.8 mph - N/A   Clear
11:51 PM 36.0 °F 32.1 °F 35.1 °F 97% 30.05 in 4.0 mi SW 4.6 mph - N/A   Clear